Whiteman AFB, MO

8:38 PM CDT on May 22, 2018 (GMT -0500)
Whiteman Air Force Base

Weather History for KSZL - April, 2014

Change the Weather History Date:

Monday, April 21, 2014

  Actual Average Record
Temperature  
Mean Temperature 64 °F -  
Max Temperature 71 °F 65 °F 82 °F (2005)
Min Temperature 57 °F 46 °F 35 °F (2012)
Degree Days  
Heating Degree Days 1    
Growing Degree Days 14 (Base 50)    
Moisture  
Dew Point 55 °F    
Average Humidity 74    
Maximum Humidity 94    
Minimum Humidity 59    
Precipitation  
Precipitation 0.00 in - - ()
Sea Level Pressure  
Sea Level Pressure 29.98 in    
Wind  
Wind Speed 7 mph (WSW)    
Max Wind Speed 21 mph    
Max Gust Speed 29 mph    
Visibility 10 miles    
Events Rain , Thunderstorm    
Averages and records for this station are not official NWS values.
T = Trace of Precipitation, MM = Missing Value Source: NWS Daily Summary

Daily Weather History Graph

Daily Weather History Graph

Search for Another Location

Airport or City:

Astronomy

Apr. 21, 2014 Rise Set
Actual Time 6:29 AM CDT 7:56 PM CDT
Civil Twilight 6:01 AM CDT 8:24 PM CDT
Nautical Twilight 5:28 AM CDT 8:58 PM CDT
Astronomical Twilight 4:52 AM CDT 9:33 PM CDT
Moon 1:26 AM CDT (4/21) 11:57 AM CDT (4/21)
Length of Visible Light 14h 23m
Length of Day
13h 27m
Waning Gibbous, 57% of the Moon is Illuminated
Apr 21
Waning Gibbous
Apr 22
Last Quarter
Apr 29
New
May 6
First Quarter
May 14
Full

Hourly Weather History & Observations

Time (CDT) Temp. Dew Point Humidity Pressure Visibility Wind Dir Wind Speed Gust Speed Precip Events Conditions
12:58 AM 60.4 °F 51.1 °F 71% 30.01 in 10.0 mi South 3.5 mph - N/A   Clear
1:58 AM 58.6 °F 50.9 °F 75% 29.99 in 10.0 mi South 3.5 mph - N/A   Clear
2:58 AM 58.8 °F 51.1 °F 75% 30.00 in 10.0 mi South 3.5 mph - N/A   Overcast
3:58 AM 58.1 °F 51.8 °F 80% 30.01 in 10.0 mi South 5.8 mph - N/A   Overcast
4:58 AM 57.9 °F 52.7 °F 83% 30.01 in 10.0 mi South 8.1 mph - N/A   Overcast
5:58 AM 59.4 °F 53.8 °F 82% 30.01 in 10.0 mi SW 6.9 mph - N/A   Overcast
6:22 AM 59.0 °F 53.6 °F 82% 30.01 in 6.0 mi South 8.1 mph - N/A Rain Light Rain Showers
6:47 AM 59.0 °F 53.6 °F 82% 30.02 in 9.0 mi SSW 8.1 mph - N/A Rain Light Rain
6:52 AM 59.0 °F 53.6 °F 82% 30.02 in 8.0 mi SSW 6.9 mph - N/A Rain Light Rain
6:58 AM 58.6 °F 54.5 °F 86% 30.02 in 6.0 mi SSW 6.9 mph - 0.00 in Rain Light Rain
7:08 AM 59.0 °F 55.4 °F 88% 30.02 in 7.0 mi South 6.9 mph - N/A Rain Light Rain
7:13 AM 59.0 °F 55.4 °F 88% 30.01 in 7.0 mi South 6.9 mph - N/A   Light Drizzle
7:18 AM 57.2 °F 55.4 °F 94% 30.01 in 7.0 mi South 5.8 mph - N/A   Overcast
7:58 AM 59.5 °F 57.0 °F 91% 30.02 in 10.0 mi SW 6.9 mph - 0.00 in   Overcast
8:58 AM 61.3 °F 57.7 °F 88% 30.00 in 10.0 mi SSW 6.9 mph - N/A   Mostly Cloudy
9:58 AM 64.4 °F 58.1 °F 80% 30.00 in 10.0 mi WSW 8.1 mph - N/A   Mostly Cloudy
10:18 AM 66.2 °F 55.4 °F 68% 30.00 in 10.0 mi WSW 11.5 mph - N/A   Mostly Cloudy
10:58 AM 67.8 °F 55.2 °F 64% 29.99 in 10.0 mi SW 12.7 mph - N/A   Mostly Cloudy
11:58 AM 67.6 °F 54.5 °F 63% 29.99 in 10.0 mi West 10.4 mph - N/A   Mostly Cloudy
12:58 PM 68.9 °F 54.0 °F 59% 29.97 in 10.0 mi WSW 8.1 mph - N/A   Mostly Cloudy
1:58 PM 68.9 °F 56.5 °F 65% 29.96 in 10.0 mi WSW 8.1 mph - N/A   Mostly Cloudy
2:38 PM 68.0 °F 57.2 °F 68% 29.96 in 10.0 mi SW 9.2 mph - N/A   Mostly Cloudy
2:58 PM 68.0 °F 56.7 °F 67% 29.96 in 10.0 mi West 10.4 mph - N/A   Mostly Cloudy
3:58 PM 70.3 °F 57.0 °F 63% 29.94 in 10.0 mi WSW 10.4 mph - N/A   Mostly Cloudy
4:58 PM 71.4 °F 57.2 °F 61% 29.93 in 10.0 mi WSW 10.4 mph - N/A   Scattered Clouds
5:58 PM 70.7 °F 57.2 °F 62% 29.92 in 10.0 mi West 6.9 mph - N/A   Scattered Clouds
6:28 PM 69.8 °F 57.2 °F 64% 29.93 in 10.0 mi WNW 5.8 mph - N/A   Light Drizzle
6:40 PM 69.8 °F 57.2 °F 64% 29.93 in 10.0 mi West 6.9 mph - N/A   Partly Cloudy
6:58 PM 70.3 °F 57.7 °F 64% 29.93 in 10.0 mi West 5.8 mph - 0.00 in   Clear
7:58 PM 67.3 °F 57.6 °F 71% 29.94 in 10.0 mi West 8.1 mph - N/A   Mostly Cloudy
8:11 PM 66.2 °F 57.2 °F 73% 29.94 in 10.0 mi West 5.8 mph - N/A Thunderstorm Mostly Cloudy
8:24 PM 66.2 °F 57.2 °F 73% 29.96 in 10.0 mi NNW 17.3 mph 20.7 mph N/A Thunderstorm Thunderstorm
8:26 PM 66.2 °F 57.2 °F 73% 29.96 in 10.0 mi North 20.7 mph 25.3 mph N/A Rain , Thunderstorm Light Thunderstorms and Rain
8:39 PM 62.6 °F 53.6 °F 72% 29.97 in 10.0 mi North 10.4 mph 28.8 mph N/A Rain , Thunderstorm Light Rain
8:45 PM 62.6 °F 53.6 °F 72% 29.97 in 10.0 mi North 8.1 mph - N/A Thunderstorm Mostly Cloudy
8:46 PM 62.6 °F 53.6 °F 72% 29.97 in 10.0 mi North 6.9 mph - N/A Thunderstorm Mostly Cloudy
8:48 PM 62.6 °F 53.6 °F 72% 29.98 in 10.0 mi North 5.8 mph - N/A Thunderstorm Partly Cloudy
8:54 PM 62.6 °F 53.6 °F 72% 29.98 in 10.0 mi NNW 5.8 mph - N/A   Scattered Clouds
8:58 PM 62.1 °F 53.2 °F 73% 29.98 in 10.0 mi North 5.8 mph - 0.00 in   Scattered Clouds
9:58 PM 62.2 °F 53.4 °F 73% 30.00 in 10.0 mi NNW 6.9 mph - N/A   Mostly Cloudy
10:58 PM 59.9 °F 53.4 °F 79% 29.99 in 10.0 mi North 9.2 mph - N/A   Clear
11:58 PM 57.9 °F 53.8 °F 86% 29.99 in 10.0 mi NW 8.1 mph - N/A   Clear